Home   Weather   Medellin   Past weeks

Flag for Colombia Past Weather in Medellin, Colombia — Yesterday and Last 2 Weeks

Now
63 °F

Passing clouds.


Feels Like: 63 °F
Forecast: 52 / 80 °F
Wind: 6 mph from Northeast

Location: Rionegro / J. M. Cordova

Current Time: Jul 21, 2017 at 8:10:31 pm

Latest Report: Jul 21, 2017 at 7:00 pm


Visibility: N/A

Pressure: 30.28 "Hg (25.44 "Hg at 1479m altitude)

Humidity: 83%

Dew Point: 57 °F

Location of MedellinLocation

Past Weather in Medellin — Graph

°F

Medellin Temperature Yesterday

Maximum temperature yesterday: 70 °F (at 2:00 pm)
Minimum temperature yesterday: 57 °F (at 2:00 am)
Average temperature yesterday: 62 °F

High & Low Weather Summary for the Past Weeks

 TemperatureHumidityPressure
High75 °F (Jul 13, 1:00 pm)100% (Jul 7, 1:00 am)30.38 "Hg (Jul 7, 1:00 am)
Low50 °F (Jul 13, 6:00 am)36% (Jul 8, 3:00 pm)30.20 "Hg (Jul 18, 4:00 pm)
Average63 °F78%30.31 "Hg
* Reported Jul 6 6:00 pm — Jul 21 6:00 pm, Medellin. Weather by CustomWeather, © 2017

Note: Actual official high and low records may vary slightly from our data, if they occured in-between our weather recording intervals... More about our weather records

Advertising

Medellin Weather History for the Previous 24 Hours

Scroll right to see more
 ConditionsComfort  
Time TempWeatherWind HumidityBarometerVisibility
6:00 pm
Fri, Jul 21
66 °FPartly sunny.7 mph73%30.26 "HgN/A
5:00 pm72 °FPartly sunny.9 mph53%30.24 "HgN/A
4:00 pm73 °FPartly sunny.7 mph41%30.23 "HgN/A
3:00 pm73 °FScattered clouds.12 mph41%30.24 "HgN/A
2:00 pm73 °FScattered clouds.12 mph41%30.25 "HgN/A
1:00 pm73 °FScattered clouds.12 mph47%30.27 "HgN/A
12:00 pm73 °FPassing clouds.14 mph44%30.27 "HgN/A
11:00 am72 °FPassing clouds.9 mph50%30.29 "HgN/A
10:00 am68 °FPassing clouds.6 mph64%30.32 "HgN/A
9:00 am61 °FPassing clouds.5 mph88%30.31 "HgN/A
8:00 am57 °FFog.2 mph94%30.30 "Hg1 mi
7:00 am55 °FFog.5 mph100%30.30 "Hg1 mi
6:00 am55 °FScattered clouds.No wind94%30.27 "HgN/A
5:30 am55 °FFog.2 mph100%30.27 "Hg3 mi
5:00 am57 °FPassing clouds.2 mph100%30.27 "HgN/A
4:00 am57 °FPassing clouds.3 mph94%30.27 "HgN/A
3:00 am59 °FPassing clouds.2 mph94%30.27 "HgN/A
2:00 am59 °FPartly cloudy.No wind94%30.30 "HgN/A
1:00 am59 °FPartly cloudy.3 mph94%30.32 "HgN/A
12:00 am59 °FPartly cloudy.5 mph94%30.35 "HgN/A
11:00 pm
Thu, Jul 20
61 °FPassing clouds.3 mph88%30.36 "HgN/A
10:00 pm61 °FPartly cloudy.3 mph88%30.35 "HgN/A
9:00 pm61 °FPartly cloudy.3 mph94%30.34 "HgN/A
8:00 pm63 °FPassing clouds.3 mph88%30.32 "HgN/A
Weather by CustomWeather, © 2017

See weather overviewHow to use our weather pages